Regional Weather Roundup
Issued by NWS Grand Forks, ND

Home | Current Version | Previous Version | Graphics & Text | Print | Product List | Glossary On
Versions: 1 2 3 4 5 6 7 8 9 10 11 12 13 14 15 16 17 18 19 20 21 22 23 24 25 26 27 28 29 30 31 32 33 34 35 36 37 38 39 40 41 42 43 44 45 46 47 48 49 50
000
ASUS43 KFGF 290331
RWRFGF
PRAIRIE TO PINES  WEATHER ROUNDUP
NATIONAL WEATHER SERVICE EASTERN NORTH DAKOTA/GRAND FORKS ND
1000 PM CDT THU APR 28 2016

 **SATELLITE DATA USED TO AUGMENT SKY COVER AT AUTOMATED STATIONS**
 *****  WEATHER ACROSS EASTERN NORTH DAKOTA  *****

CITY           SKY/WX    TMP DP  RH WIND       PRES   REMARKS
GRAND FORKS    MOCLDY    41  31  67 NE5       30.15R
GRAND FRKS AFB CLOUDY    40  26  56 NE3       30.15R
DEVILS LAKE    CLOUDY    46  28  49 CALM      30.17R
FARGO          CLOUDY    52  27  38 NE8       30.11R
WAHPETON ARPT  CLOUDY    45  34  65 SW7       30.14R
$$

 ***** WEATHER ACROSS CENTRAL AND WESTERN NORTH DAKOTA  *****

CITY           SKY/WX    TMP DP  RH WIND       PRES   REMARKS
BISMARCK       CLOUDY    48  32  53 NE6       30.15R
MINOT          CLOUDY    48  20  32 NE6       30.17R
JAMESTOWN      CLOUDY    48  31  51 NE9       30.14R
MINOT AFB      PTCLDY    48  19  31 E8        30.16R
GARRISON         N/A     48  21  34 E9        30.15R
WILLISTON      CLOUDY    50  20  30 E3        30.16R
DICKINSON      CLOUDY    42  28  57 E7        30.12R
HETTINGER      CLOUDY    40  36  86 W7        30.14R
$$

 *****  OTHER AIRPORT OBSERVATIONS IN OUR AREA  *****

CITY           SKY/WX    TMP DP  RH WIND       PRES   REMARKS
WALHALLA       FAIR      46  19  34 N12       30.19S
GRAFTON AIRPOR FAIR      45  28  53 NE7       30.18R
VALLEY CITY AR FAIR      45  28  53 NE10      30.16R
CANDO          FAIR      45  18  33 NE8       30.21R
CAVALIER APRT  FAIR      46  25  42 NE6       30.19R
GWINNER        MOCLDY    46  39  76 SW6       30.13R
ROLLA          MOCLDY    39  19  45 NE9       30.21R
 ***** THE ABOVE OBSERVATIONS ARE NON NWS ARE NOT QUALITY
       CONTROLLED AND MAY MIS-REPORT RAIN FOR SNOW...
$$

  *****  WEATHER ACROSS NORTHERN MINNESOTA  *****

CITY           SKY/WX    TMP DP  RH WIND       PRES   REMARKS
FLAG ISLAND    PTCLDY    46  28  49 NE5       30.17S
WARROAD        PTCLDY    45  28  53 NE7       30.18S
ROSEAU         CLOUDY    41  32  70 NE5       30.18R
HALLOCK        PTCLDY    46  25  42 CALM      30.17S
THF RVR FALLS  CLEAR     45  21  39 NE7       30.17R
BAUDETTE       PTCLDY    46  27  47 NE8       30.16R
WASKISH        CLEAR     45  30  57 CALM      30.15R
CROOKSTON      CLOUDY    46  27  46 E8        30.16R
STEPHEN NDAWN    N/A     41  27  56 NE3         N/A
GREENBUSH NDAW   N/A     43  28  56 E3          N/A
$$
  *****  WEATHER ACROSS CENTRAL AND WEST MINNESOTA  *****

CITY           SKY/WX    TMP DP  RH WIND       PRES   REMARKS
FOSSTON        CLOUDY    45  28  53 NE6       30.14R
BEMIDJI        CLOUDY    42  27  55 CALM      30.13R
PARK RAPIDS    PTCLDY    48  26  42 E6        30.11R
ELBOW LAKE     CLOUDY    42  38  88 S6        30.14R
WADENA         PTCLDY    45  36  70 S5        30.12R
DETROIT LAKES  PTCLDY    50  30  46 CALM      30.13R
MOORHEAD       CLOUDY    50  28  43 NE7       30.13R
FERGUS FALLS   CLOUDY    43  37  81 SW6       30.12R
MORRIS MN      CLOUDY    43  39  87 S3        30.13R
STAPLES        PTCLDY    45  36  70 CALM      30.12R
$$
  *****  WEATHER ELSEWHERE ACROSS MINNESOTA  *****

CITY           SKY/WX    TMP DP  RH WIND       PRES   REMARKS
DULUTH         PTCLDY    37  26  64 NE7       30.13R
INTRNTL FALLS  PTCLDY    46  29  51 N9        30.15R
ELY            PTCLDY    39  27  60 CALM      30.14R
CLOQUET        CLOUDY    37  25  60 CALM      30.13R
WHEATON        CLOUDY    45  41  87 S3        30.16R
BRAINERD       CLOUDY    46  24  42 CALM      30.12R
HIBBING        CLOUDY    39  25  57 S3        30.12R
ALEXANDRIA     CLOUDY    42  37  82 CALM      30.13R
SAINT CLOUD    CLOUDY    41  39  93 CALM      30.12R
MINNEAPOLIS    LGT RAIN  41  38  89 E5        30.13R
$$

  *****  WEATHER ACROSS SOUTH DAKOTA  *****

CITY           SKY/WX    TMP DP  RH WIND       PRES   REMARKS
SIOUX FALLS    CLOUDY    38  35  89 NE8       30.11R
BROOKINGS      MIX PCPN  37  36  96 NE7       30.11R FOG
WATERTOWN      CLOUDY    39  36  89 SE3       30.12R
HURON          CLOUDY    39  36  89 NE7       30.14R
SISSETON         N/A     44  36  73 SW7       30.13R
ABERDEEN       CLOUDY    45  37  73 S8        30.14R
MITCHELL       CLOUDY    40  37  89 NE6       30.14R
PIERRE         CLOUDY    44  35  70 CALM      30.12R
MOBRIDGE       CLOUDY    48  40  73 CALM      30.10R
RAPID CITY     CLOUDY    37  34  89 N3        30.13R
$$

  *****  SOME WEATHER IN NEARBY STATES *****

CITY           SKY/WX    TMP DP  RH WIND       PRES   REMARKS
GLASGOW MT     MOCLDY    44  34  67 SE3       30.13R
GREAT FALLS MT CLOUDY    39  32  76 NE8       30.06S
CHEYENNE WY    CLOUDY    34  32  92 S8        30.04R
SCOTTSBLUFF NE CLOUDY    38  35  89 CALM      30.11R
OMAHA NE       CLOUDY    46  41  82 NW8       30.10R
DES MOINES IA  DRIZZLE   50  45  83 NW8       30.04R
DAVENPORT IA   CLOUDY    50  48  93 E6        30.01R FOG
CHICAGO IL     LGT RAIN  42  41  96 N9        30.01R FOG
EAU CLAIRE WI  LGT RAIN  39  38  96 CALM      30.11R
LA CROSSE WI   CLOUDY    41  36  82 NE6       30.09R
$$

  *****  SOME NATIONAL WEATHER *****

CITY           SKY/WX    TMP DP  RH WIND       PRES   REMARKS
LA GUARDIA NY  CLOUDY    50  37  61 S7        30.07R
RALEIGH NC     LGT RAIN  66  63  90 NE7       29.89R
ATLANTA GA     PTCLDY    72  60  66 W5        29.98R
NEW ORLEANS LA MOCLDY    75  70  84 SE7       29.95R
OKLAHOMA CITY  MOCLDY    67  51  56 E13       29.87F
ALBUQUERQUE NM MOCLDY    66   6   9 S10       29.73R
SALT LAKE CITY CLOUDY    51  32  48 E13       29.79R
LOS ANGELES CA PTCLDY    59  51  75 W9        29.89R
BOISE ID       PTCLDY    59  31  34 NW15      29.83R
SEATTLE WA     CLOUDY    57  46  66 W5        30.08S
$$

*** WEATHER ACROSS MANITOBA...SASKATCHEWAN AND ONTARIO ***
                ***ONTARIO***

CITY           SKY/WX    TMP DP  RH WIND       PRES   REMARKS
GERALDTON      MOCLDY    36  27  69 NE3       30.19F
THUNDER BAY    PTCLDY    32  25  74 W2        30.16S
SIOUX LOOKOUT  MOCLDY    45  30  57 VRB2      30.19
TORONTO        MOCLDY    43  25  49 E6        30.07S
BIG TROUT LK   CLOUDY    32  27  80 VRB2      30.30S
PICKLE LAKE    NOT AVBL
DRYDEN         CLOUDY    45  30  57 NE3       30.18R
KENORA         MOCLDY    45  30  57 NE5       30.19R
$$
                *** MANITOBA***

CITY           SKY/WX    TMP DP  RH WIND       PRES   REMARKS
BRANDON        MOCLDY    39  18  41 NE8       30.23R
DAUPHIN        CLEAR     39  18  41 SE2       30.26R
ISLAND LAKE    CLEAR     39  10  30 NE5       30.31S
PILOT MOUND      N/A     45  12  26 NE6         N/A
THE PAS        PTCLDY    45  23  42 SE5       30.29R
THOMPSON       MOCLDY    46  16  29 E3        30.31
WINNIPEG       MOCLDY    43  19  39 NE8       30.22R
LYNN LAKE      PTCLDY    48  27  43 CALM      30.20S
CHURCHILL      PTCLDY    25  21  86 E3        30.46S
GILLAM         MOCLDY    34  18  51 E7        30.39S
$$
                ***SASKATCHEWAN***

CITY           SKY/WX    TMP DP  RH WIND       PRES   REMARKS
ESTEVAN        CLOUDY    43  16  33 E8        30.19R
KINDERSLEY     PTCLDY    46  27  46 SE10      30.13R
LLOYDMINSTER   MOCLDY    52  25  35 SE10      30.10S
PRINCE ALBERT  PTCLDY    50  27  40 SE8       30.19R
REGINA         MOCLDY    50  19  29 E14       30.18R
YORKTON        CLEAR     45  23  42 SE8       30.22R
N. BATTLEFORD  CLEAR     50  23  34 SE12      30.16S
LA RONGE       PTCLDY    54  25  32 SE9       30.19R
SASKATOON      MOCLDY    48  23  37 E9        30.19S
SWIFT CURRENT  PTCLDY    48  19  32 E9        30.12S
$$
NOTE: THESE ARE AUTOMATED STATIONS WITH LIMITED QUALITY CONTROL
      "FAIR" INDICATES FEW OR NO CLOUDS BELOW 12,000 FEET WITH NO
      SIGNIFICANT WEATHER AND/OR OBSTRUCTIONS TO VISIBILITY.
      SKY/WX - SKY CONDITION AND SIGNIFICANT WEATHER.
      TMP - AIR TEMPERATURE.    DP   - DEWPOINT TEMPERATURE.
      RH  - RELATIVE HUMIDITY.  PRES - PRESSURE.
      HX  - HEAT INDEX.         WCI  - WIND CHILL INDEX.
$




USA.gov is the U.S. government's official web portal to all federal, state and local government web resources and services.